| time (UTC) | temp F | wind direction | speed knots | gust knots | rain 1hr in | rain 24hr in | rain mn in | humidity % | barometer mb |
| 20260505214202 | 50 | 69 | 1.7 | 4.3 | 0.00 | 0.00 | 0.00 | 84 | 1013.6 |
| 20260505211202 | 50 | 16 | 0.0 | 1.7 | 0.00 | 0.00 | 0.00 | 84 | 1013.6 |
| 20260505204201 | 50 | 4 | 0.0 | 2.6 | 0.00 | 0.00 | 0.00 | 83 | 1013.4 |
| 20260505201202 | 50 | 65 | 0.9 | 4.3 | 0.00 | 0.00 | 0.00 | 82 | 1013.3 |
| 20260505194159 | 51 | 30 | 0.9 | 5.2 | 0.00 | 0.00 | 0.00 | 79 | 1013.1 |
| 20260505191159 | 51 | 295 | 1.7 | 5.2 | 0.00 | 0.00 | 0.00 | 78 | 1012.9 |
| 20260505184158 | 52 | 38 | 3.5 | 5.2 | 0.00 | 0.00 | 0.00 | 77 | 1012.8 |
| 20260505181201 | 53 | 6 | 1.7 | 5.2 | 0.00 | 0.00 | 0.00 | 76 | 1012.8 |
| 20260505171157 | 55 | 326 | 0.9 | 8.7 | 0.00 | 0.00 | 0.00 | 75 | 1012.9 |
| 20260505164155 | 55 | 41 | 2.6 | 7.8 | 0.00 | 0.00 | 0.00 | 71 | 1012.8 |
| 20260505161155 | 56 | 41 | 1.7 | 6.1 | 0.00 | 0.00 | 0.00 | 69 | 1012.9 |
| 20260505151154 | 58 | 354 | 1.7 | 6.1 | 0.00 | 0.00 | 0.00 | 68 | 1013.0 |
| 20260505121151 | 54 | 44 | 1.7 | 8.7 | 0.00 | 0.00 | 0.00 | 74 | 1013.5 |
| 20260505114153 | 56 | 306 | 1.7 | 6.1 | 0.00 | 0.00 | 0.00 | 71 | 1013.4 |
| 20260505111151 | 57 | 20 | 1.7 | 8.7 | 0.00 | 0.00 | 0.00 | 68 | 1013.4 |
| 20260505101149 | 55 | 10 | 3.5 | 7.8 | 0.00 | 0.00 | 0.00 | 64 | 1013.9 |
| 20260505091147 | 53 | 345 | 4.3 | 11.3 | 0.00 | 0.00 | 0.00 | 68 | 1013.8 |
| 20260505084147 | 53 | 269 | 1.7 | 6.1 | 0.00 | 0.00 | 0.00 | 71 | 1014.0 |
| 20260505074146 | 50 | 34 | 3.5 | 8.7 | 0.00 | 0.00 | 0.00 | 76 | 1014.2 |
| 20260505071147 | 49 | 62 | 1.7 | 6.1 | 0.00 | 0.00 | 0.00 | 78 | 1014.3 |
| 20260505064142 | 49 | 337 | 0.0 | 2.6 | 0.00 | 0.00 | 0.00 | 78 | 1014.3 |
| 20260505061144 | 49 | 25 | 0.0 | 2.6 | 0.00 | 0.00 | 0.00 | 81 | 1014.3 |
| 20260505054144 | 48 | 14 | 0.0 | 2.6 | 0.00 | 0.00 | 0.00 | 84 | 1014.1 |
| 20260505053532 | 48 | 13 | 0.0 | 2.6 | 0.00 | 0.00 | 0.00 | 84 | 1014.1 |
| 20260505050531 | 48 | 71 | 0.9 | 1.7 | 0.00 | 0.00 | 0.00 | 85 | 1014.1 |
| 20260505040532 | 47 | 75 | 0.0 | 0.9 | 0.00 | 0.00 | 0.00 | 89 | 1014.0 |
| 20260505020531 | 47 | 49 | 0.0 | 0.9 | 0.00 | 0.00 | 0.00 | 92 | 1014.1 |
| 20260505013531 | 47 | 49 | 0.0 | 1.7 | 0.00 | 0.00 | 0.00 | 92 | 1014.3 |
| 20260505010531 | 47 | 55 | 0.0 | 2.6 | 0.00 | 0.00 | 0.00 | 92 | 1014.5 |
| 20260505003531 | 47 | 41 | 0.0 | 1.7 | 0.00 | 0.00 | 0.00 | 94 | 1014.7 |
| 20260505000531 | 48 | 97 | 0.0 | 2.6 | 0.00 | 0.00 | 0.00 | 93 | 1014.9 |
| 20260504233530 | 49 | 324 | 0.9 | 4.3 | 0.00 | 0.00 | 0.00 | 93 | 1015.1 |
| 20260504223531 | 50 | 25 | 0.0 | 0.9 | 0.00 | 0.00 | 0.00 | 93 | 1015.1 |
| 20260504220530 | 49 | 326 | 0.0 | 78.2 | 0.00 | 0.00 | 0.00 | 93 | 1015.1 |